[[{"header":{"parameterUnit":"m.s-1","parameterCategory":1,"la1":30.2991,"la2":30.254,"lo1":-89.0895,"lo2":-89.0444,"dy":0.0017,"dx":0.0017,"nx":28,"ny":28,"refTime":"2025-07-17T21:00:00:Z","depth":0,"parameterNumber":2,"parameterNumberName":"U-component_of_WINDS"},"data":[0,0,0,0,0,0,0,0,0,0,0,0,0,0,0,0,0,0,0,0,0,0,0,0,0,0,0,0,0,0,0,0,0,0,0,0,0,0,0,0,0,0,0,0,0,0,0,0,0,0,0,0,0,0,0,0,0,0,-5.7638,-5.7636,0,-5.7501,-5.7499,-5.7497,-5.7429,-5.7429,-5.7429,-5.7429,-5.7275,-5.7271,-5.7267,0,0,0,0,0,0,0,0,0,0,0,0,0,-5.783,-5.7827,-5.7638,-5.7636,-5.7635,-5.7501,-5.7499,-5.7497,-5.7429,-5.7429,-5.7429,-5.7429,-5.7276,-5.7271,-5.7266,0,0,0,0,0,0,0,0,0,0,0,0,0,-5.7725,-5.7826,-5.7638,-5.7585,-5.7579,-5.7501,-5.7499,-5.7496,-5.7429,-5.7429,-5.7429,-5.7429,-5.7278,-5.7272,-5.7266,-5.7227,0,0,-5.7247,-5.7244,0,0,0,0,0,0,0,0,-5.7731,-5.7718,-5.7594,-5.7588,-5.7581,-5.7482,-5.751,-5.7406,-5.7429,-5.7485,-5.7429,-5.7429,-5.7343,-5.7331,-5.7305,-5.722,-5.7213,-5.7246,-5.7243,-5.724,-5.7238,0,0,0,0,0,0,0,-5.7738,-5.7723,-5.7583,-5.7593,-5.7585,-5.7564,-5.7549,-5.749,-5.7415,-5.748,-5.7475,-5.746,-5.7339,-5.7311,-5.7301,-5.7211,-5.7247,-5.7241,-5.7237,-5.7235,-5.7087,-5.7087,0,0,0,0,0,0,-5.7756,-5.773,-5.7587,-5.7579,-5.7658,-5.756,-5.7544,-5.7514,-5.7416,-5.7401,-5.7461,-5.7458,-5.7322,-5.7308,-5.7295,-5.7244,-5.724,-5.7234,-5.7231,-5.7088,-5.7087,-5.7087,0,0,0,0,0,0,-5.776,-5.7744,-5.7593,-5.7653,-5.7632,-5.7557,-5.7524,-5.7511,-5.7483,-5.7401,-5.7386,-5.7447,-5.7321,-5.7304,-5.7246,-5.7238,-5.7231,-5.7226,-5.7088,-5.7087,-5.7087,-5.7141,0,0,0,0,0,0,-5.7766,-5.7746,-5.7733,-5.7653,-5.763,-5.7549,-5.7523,-5.7508,-5.7474,-5.7469,-5.7384,-5.737,-5.732,-5.7255,-5.724,-5.7229,-5.7221,-5.7088,-5.7088,-5.7087,-5.7139,-5.7142,-5.7145,0,0,0,0,0,-5.7773,-5.775,-5.7733,-5.7716,-5.7612,-5.7549,-5.7535,-5.7482,-5.7474,-5.7458,-5.7406,-5.7372,-5.7242,-5.725,-5.7232,-5.7219,-5.7088,-5.7088,-5.7087,-5.7138,-5.7142,-5.7145,0,0,0,0,0,0,-5.7825,-5.7739,-5.7718,-5.767,-5.7618,-5.7538,-5.7517,-5.7487,-5.7433,-5.743,-5.7363,-5.7344,-5.7292,-5.7249,-5.726,-5.7177,-5.7161,-5.7157,-5.7206,-5.7209,-5.7212,-5.7222,-5.7216,0,0,0,0,0,-5.7833,-5.7792,-5.7717,-5.7681,-5.7657,-5.7592,-5.7562,-5.7527,-5.7468,-5.7444,-5.7387,-5.7329,-5.7274,-5.7239,-5.7185,-5.7134,-5.7113,-5.7116,-5.7119,-5.7121,-5.7118,-5.7087,-5.7088,-5.7085,-5.7085,-5.7085,0,0,-5.7844,-5.7792,-5.777,-5.7691,-5.7646,-5.7603,-5.7573,-5.7528,-5.7494,-5.7436,-5.7379,-5.7335,-5.7265,-5.7211,-5.7183,-5.7173,-5.7115,-5.7121,-5.7124,-5.7118,-5.7087,-5.7087,-5.7088,-5.7085,-5.7085,-5.7085,0,0,-5.7844,-5.7801,-5.7768,-5.7725,-5.766,-5.7617,-5.761,-5.7534,-5.7505,-5.7447,-5.7403,-5.736,-5.7268,-5.722,-5.7183,-5.7168,-5.7134,-5.7152,-5.7165,-5.7137,-5.7137,-5.7137,-5.713,-5.7129,-5.7149,-5.7149,-5.7149,0,-5.7866,-5.7803,-5.7753,-5.7711,-5.7677,-5.7628,-5.7592,-5.7551,-5.747,-5.7446,-5.7437,-5.7322,-5.7271,-5.7205,-5.7202,-5.7174,-5.7161,-5.716,-5.7142,-5.7141,-5.714,-5.7133,-5.7131,-5.7152,-5.7151,-5.7151,-5.7151,0,-5.7832,-5.7789,-5.7769,-5.7698,-5.7661,-5.7622,-5.7563,-5.7532,-5.75,-5.7457,-5.7399,-5.7337,-5.7269,-5.7251,-5.7217,-5.718,-5.7176,-5.7156,-5.7138,-5.7144,-5.7136,-5.7133,-5.7155,-5.7154,-5.7154,-5.7153,0,0,-5.7858,-5.7763,-5.7757,-5.7724,-5.765,-5.7613,-5.7572,-5.7511,-5.7484,-5.743,-5.7392,-5.7317,-5.7298,-5.7257,-5.7218,-5.7193,-5.7184,-5.7175,-5.7172,-5.7178,-5.7138,-5.7154,-5.7152,-5.7163,-5.7162,-5.7161,-5.7144,0,-5.7847,-5.7775,-5.773,-5.7674,-5.7633,-5.7587,-5.755,-5.7499,-5.7458,-5.7414,-5.7367,-5.7315,-5.7295,-5.727,-5.7244,-5.7191,-5.7175,-5.7192,-5.7123,-5.7121,-5.7141,-5.7148,-5.7163,-5.7149,-5.7141,-5.714,-5.714,0,-5.7824,-5.7777,-5.7719,-5.7651,-5.7632,-5.76,-5.7541,-5.7501,-5.7441,-5.7413,-5.7369,-5.7331,-5.7281,-5.7271,-5.7201,-5.7213,-5.7182,-5.7152,-5.715,-5.714,-5.713,-5.7136,-5.7144,-5.7142,-5.7135,-5.7135,-5.7135,0,-5.7849,-5.777,-5.7725,-5.7699,-5.7619,-5.7598,-5.7562,-5.7503,-5.747,-5.7417,-5.7394,-5.7334,-5.7301,-5.7254,-5.7199,-5.7197,-5.7135,-5.7119,-5.7107,-5.7109,-5.7094,-5.7096,-5.7096,-5.7077,-5.7077,-5.7077,-5.7077,0,-5.784,-5.7806,-5.7736,-5.7708,-5.7668,-5.7615,-5.7576,-5.7536,-5.7484,-5.7445,-5.74,-5.7364,-5.7295,-5.7249,-5.7205,-5.7154,-5.7139,-5.7113,-5.7101,-5.7116,-5.7119,-5.7093,-5.7092,-5.7077,-5.7077,-5.7077,-5.7077,0,-5.786,-5.7812,-5.776,-5.7691,-5.7672,-5.7646,-5.7584,-5.7553,-5.7512,-5.7464,-5.7449,-5.7382,-5.7326,-5.7268,-5.719,-5.7161,-5.711,-5.7095,-5.7132,-5.7125,-5.7117,-5.7118,-5.7099,-5.7093,-5.708,-5.708,-5.7081,0,-5.7857,-5.7831,-5.776,-5.7734,-5.7701,-5.7658,-5.7625,-5.7572,-5.7539,-5.747,-5.7447,-5.739,-5.734,-5.7253,-5.7194,-5.7135,-5.7117,-5.7114,-5.7107,-5.7123,-5.7115,-5.7117,-5.7114,-5.7116,-5.7117,-5.7117,-5.7117,0,-5.7857,-5.7836,-5.7793,-5.7742,-5.7705,-5.7661,-5.7614,-5.7594,-5.7531,-5.7495,-5.7441,-5.7403,-5.7327,-5.7269,-5.7203,-5.7162,-5.7128,-5.7121,-5.7114,-5.7128,-5.7151,-5.7138,-5.7138,-5.7121,-5.712,-5.712,-5.712,-5.712,-5.7865,-5.784,-5.7787,-5.774,-5.7701,-5.766,-5.7628,-5.7585,-5.754,-5.7477,-5.7447,-5.7392,-5.7332,-5.7242,-5.7202,-5.7156,-5.7146,-5.7137,-5.7134,-5.7133,-5.7136,-5.7161,-5.7143,-5.7143,-5.7143,-5.7143,-5.7143,0,-5.7862,-5.7827,-5.7785,-5.7724,-5.7687,-5.7664,-5.7612,-5.7581,-5.7535,-5.7485,-5.7439,-5.7375,-5.732,-5.7259,-5.7199,-5.7173,-5.7156,-5.7159,-5.7159,-5.715,-5.7149,-5.716,-5.7174,-5.7174,-5.7174,-5.7174,-5.7174,-5.7174,-5.7856,-5.7813,-5.7785,-5.7721,-5.7684,-5.7634,-5.7606,-5.7566,-5.7526,-5.7459,-5.7415,-5.7377,-5.7322,-5.7258,-5.7205,-5.7188,-5.7167,-5.7174,-5.7153,-5.7152,-5.715,-5.7148,-5.7158,-5.717,-5.717,-5.7157,-5.7157,-5.7157]},{"header":{"parameterUnit":"m.s-1","parameterCategory":1,"la1":30.2991,"la2":30.254,"lo1":-89.0895,"lo2":-89.0444,"dy":0.0017,"dx":0.0017,"nx":28,"ny":28,"refTime":"2025-07-17T21:00:00:Z","depth":0,"parameterNumber":3,"parameterNumberName":"V-component_of_WINDS"},"data":[0,0,0,0,0,0,0,0,0,0,0,0,0,0,0,0,0,0,0,0,0,0,0,0,0,0,0,0,0,0,0,0,0,0,0,0,0,0,0,0,0,0,0,0,0,0,0,0,0,0,0,0,0,0,0,0,0,0,4.5337,4.5339,0,4.5568,4.5571,4.5574,4.5607,4.5605,4.5603,4.5601,4.5833,4.5841,4.5849,0,0,0,0,0,0,0,0,0,0,0,0,0,4.4919,4.4927,4.5336,4.5339,4.5342,4.5568,4.5571,4.5574,4.5607,4.5605,4.5602,4.56,4.583,4.584,4.5849,0,0,0,0,0,0,0,0,0,0,0,0,0,4.5121,4.4929,4.5336,4.5386,4.5393,4.5567,4.5571,4.5575,4.5608,4.5605,4.5602,4.5599,4.5827,4.5839,4.5851,4.5989,0,0,4.5888,4.5893,0,0,0,0,0,0,0,0,4.5109,4.5136,4.5376,4.5383,4.5391,4.5556,4.5509,4.5714,4.5609,4.5526,4.5601,4.5597,4.5743,4.5762,4.5812,4.6,4.601,4.5889,4.5897,4.5902,4.5905,0,0,0,0,0,0,0,4.5095,4.5126,4.5428,4.5379,4.5389,4.5396,4.5421,4.5548,4.5649,4.5533,4.5536,4.5563,4.5746,4.58,4.5818,4.6014,4.5889,4.59,4.5907,4.5912,4.6331,4.6335,0,0,0,0,0,0,4.5073,4.5114,4.5421,4.5435,4.524,4.5406,4.5434,4.5506,4.5648,4.5667,4.5566,4.5564,4.5781,4.5803,4.5826,4.6,4.5902,4.5913,4.592,4.6327,4.6332,4.6336,0,0,0,0,0,0,4.5064,4.51,4.5411,4.5276,4.5316,4.5417,4.5497,4.5512,4.5566,4.5673,4.569,4.5603,4.5779,4.5809,4.595,4.6009,4.5919,4.593,4.6323,4.6329,4.6334,4.6348,0,0,0,0,0,0,4.5052,4.5096,4.515,4.5277,4.5323,4.5532,4.5501,4.5519,4.5588,4.5588,4.5712,4.5729,4.5779,4.5931,4.5962,4.6024,4.5939,4.6318,4.6325,4.6332,4.6343,4.6354,4.6363,0,0,0,0,0,4.5037,4.5143,4.5153,4.519,4.5393,4.5535,4.5562,4.5618,4.5592,4.5648,4.5717,4.5725,4.5997,4.5945,4.598,4.6047,4.6314,4.6323,4.6331,4.6338,4.6352,4.6363,0,0,0,0,0,0,4.5018,4.5161,4.5173,4.5324,4.5418,4.5541,4.5612,4.563,4.5731,4.5727,4.5791,4.5818,4.5957,4.6016,4.5956,4.619,4.6153,4.6169,4.6147,4.616,4.617,4.6153,4.5949,0,0,0,0,0,4.5032,4.5138,4.5255,4.5377,4.5424,4.551,4.5574,4.561,4.5709,4.5748,4.5827,4.5921,4.6029,4.6097,4.6201,4.6351,4.638,4.6414,4.6424,4.6432,4.6445,4.6532,4.655,4.6364,4.6364,4.6364,0,0,4.5061,4.5152,4.5214,4.5376,4.5453,4.556,4.5543,4.5656,4.5736,4.5764,4.5904,4.5965,4.6075,4.6222,4.6291,4.6275,4.6503,4.6443,4.6448,4.6458,4.6543,4.656,4.6576,4.637,4.6369,4.6368,0,0,4.517,4.5248,4.536,4.5439,4.5557,4.5614,4.5641,4.5762,4.5805,4.5947,4.5971,4.6066,4.6249,4.6327,4.639,4.6532,4.6545,4.6564,4.6617,4.67,4.6715,4.6728,4.6781,4.6799,4.6577,4.6577,4.6577,0,4.519,4.5354,4.5415,4.5529,4.56,4.5634,4.5748,4.582,4.5965,4.6013,4.5994,4.6226,4.6302,4.6469,4.6504,4.6554,4.6587,4.6551,4.6708,4.6722,4.6736,4.6787,4.6806,4.6579,4.6578,4.6578,4.6578,0,4.5375,4.5489,4.5565,4.5708,4.5787,4.59,4.5977,4.605,4.608,4.6139,4.6284,4.6376,4.6501,4.6543,4.6572,4.6716,4.6703,4.6695,4.666,4.6754,4.6804,4.6823,4.6581,4.658,4.658,4.6579,0,0,4.5477,4.5655,4.5682,4.5749,4.5883,4.5971,4.6086,4.6211,4.6274,4.6372,4.6471,4.6627,4.6622,4.6694,4.6731,4.6805,4.6915,4.6789,4.6792,4.6811,4.7082,4.7089,4.711,4.6924,4.6928,4.6931,4.7074,0,4.5603,4.5812,4.5871,4.6047,4.6153,4.6188,4.6289,4.6382,4.644,4.6539,4.6603,4.6713,4.6697,4.6741,4.6815,4.6885,4.697,4.6876,4.7017,4.7021,4.699,4.7136,4.7142,4.7273,4.7093,4.7097,4.7099,0,4.5777,4.5884,4.6071,4.6195,4.6242,4.6331,4.6453,4.6546,4.6652,4.669,4.6773,4.6805,4.6926,4.6884,4.7053,4.6988,4.7049,4.7093,4.7099,4.7116,4.7067,4.7158,4.7315,4.7336,4.7129,4.7127,4.7125,0,4.5835,4.6025,4.6163,4.6219,4.6366,4.6429,4.6492,4.6596,4.6668,4.6774,4.6822,4.6938,4.7002,4.7092,4.7155,4.7118,4.732,4.7282,4.7356,4.7354,4.7397,4.7394,4.7569,4.7433,4.7433,4.7433,4.7432,0,4.597,4.6084,4.6192,4.6277,4.6406,4.6473,4.6598,4.6663,4.6756,4.6854,4.689,4.698,4.7057,4.7159,4.7208,4.7343,4.737,4.7405,4.7417,4.7403,4.7399,4.7445,4.7438,4.7438,4.7437,4.7436,4.7435,0,4.6057,4.6134,4.6287,4.6416,4.6451,4.654,4.665,4.6733,4.6794,4.6918,4.6951,4.7046,4.7168,4.724,4.7392,4.7426,4.7575,4.7582,4.754,4.7546,4.7616,4.7609,4.7828,4.7861,4.7701,4.7703,4.7704,0,4.6139,4.6228,4.6368,4.6438,4.6503,4.6614,4.669,4.6759,4.6836,4.6966,4.7034,4.7159,4.7262,4.7455,4.7537,4.7655,4.7666,4.7735,4.7684,4.7668,4.767,4.7665,4.7675,4.7743,4.7745,4.7746,4.7747,0,4.6277,4.6312,4.642,4.6544,4.6633,4.6733,4.6831,4.6886,4.6972,4.7056,4.7183,4.7263,4.7421,4.7545,4.767,4.7735,4.7756,4.7762,4.7786,4.7773,4.7746,4.7765,4.7566,4.7757,4.7756,4.7755,4.7755,4.7754,4.6366,4.6448,4.6561,4.6681,4.6764,4.6856,4.6942,4.7016,4.7123,4.7259,4.7293,4.7426,4.7533,4.7704,4.7772,4.7877,4.7866,4.7899,4.7908,4.7916,4.792,4.7729,4.79,4.79,4.7899,4.7899,4.7899,0,4.6508,4.6583,4.6693,4.6833,4.6928,4.6942,4.7052,4.7131,4.7248,4.7347,4.745,4.7596,4.7717,4.781,4.7934,4.8001,4.8014,4.8031,4.8028,4.8043,4.7921,4.789,4.8019,4.8019,4.8019,4.8019,4.8019,4.8019,4.6593,4.6735,4.6783,4.6966,4.704,4.7173,4.7235,4.7321,4.7401,4.7564,4.7666,4.7726,4.7824,4.7956,4.8068,4.8092,4.8137,4.8153,4.8179,4.8064,4.8051,4.8039,4.801,4.8162,4.8162,4.8293,4.8294,4.8295]}]]